FREGAT DEB, 45822

Orbit data source: Space-Track

FREGAT DEB, 45822 is space debris in LEO originally from a launch on Mon, 18 Jul 2011 UTC launched from the Tyuratam Missile And Space Complex (TTMTR). Debris objects in space refer to the collection of defunct objects orbiting the Earth. Examples of debris include non-operational satellites, rocket bodies, and fragments generated from explosions, collisions, or faulty payload assembly.

Loading next visibility...
Identifier
45822, 2011-037BG
Orbit
LEO
Country
Flag of CISCIS
Related business
Manufacturer
Lavochkin
Mission
Spacecraft
Bus & Motor
Unknown
Mass
Unknown
Launch date (UTC)
2011-07-18 (14 years ago)
Launch vehicle
Unknown
Launch site
Tyuratam Missile And Space Complex (TTMTR)
Object type
Payload
Rocket body
Debris
Shape & HBR
Unknown shape, 0.1 m
Radar Cross Section
Medium (>0.1 m² and <1 m²)

Expand to show TLE details & history
Last TLE update: 12 hours ago

TLE from 12 hours ago
0 FREGAT DEB
1 45822U 11037BG  25340.86779608  .00056461  00000-0  18389-1 0  9990
2 45822  51.3582 205.3474 1087430 289.1605  59.4784 12.75888646238012
Epoch: 2025-12-06T20:49Z
TLE epoch observation values (Epoch: 2025-12-06T20:49:37.581Z)
Latitude
-0.00002°
Longitude
177.05143°
Altitude
1,004.933 km
Speed
7.516 km/s
True Right ascension
13h 41m 23s
True Declination
0° 00' 00"
Sunlit
Object was in daylight at epoch
Visualization orbit readout
Latitude
Unknown
Longitude
Unknown
Altitude
Unknown
Speed
Unknown
Apparent Right ascension
Unknown
Apparent Declination
Unknown
Sunlit
N/A
Visualization observer readout
Local Sidereal Time
07:00:04
Azimuth
Unknown
Elevation
Unknown
Doppler factor
Unknown
Orbital elements
Apogee altitude
2,199.851 km
Perigee altitude
517.232 km
Semi-major axis
7,736.678 km
Eccentricity
0.10874
Inclination
51.3582°
RAAN
205.3474°
Arg. of periapsis
289.1605°
True anomaly
70.92889°
Mean anomaly
59.4784°
Eccentric anomaly
65.13118°
Mean motion
3.18942 °/min
Orbital period
112.87 mins
BSTAR
0.018389
Loading maneuver chart data...
Computing Atmospheric mass density...
Loading historical data...
Loading historical data...
Loading historical data...
Loading historical data...
Loading historical data...
Loading historical data...
Loading historical data...

Documentation

Showing up to 5 results
|